Content
SEND FEEDBACK

Daily
Averages
Monthly
Summary
United States of America

HARRISBURG, ILLINOIS


Home > North America > United States > Illinois
Elevation: 369 feet     Latitude: 37 43N     Longitude: 088 31W

WEATHER
 
SELECT A DAY
Number of Records: 335,473;   Date Range: 7/17/01 - 11/21/14
 
SHARE

PRINT THIS DATA

[ ← Previous Day ]
WEATHER ALMANAC - FEBRUARY 13, 2013
[ Next Day → ]
[ °C ]   °F
Weather ElementAverageHighLow
Temperature39.7 °F48.2 °F (2:55 pm)33.8 °F (6:55 am)
Dewpoint33.4 °F37.4 °F (10:15 am)30.2 °F (3:35 pm)
Humidity79.8 %100 % (8:35 am)50 % (3:35 pm)
Barometer29.89 in29.92 in (9:15 am)29.86 in (3:15 am)
Wind Speed7 mph11.5 mph (1:55 pm)
Weather ElementAverage
Visibility8.3 mi
Wind DirectionWSW (256.6 °)

Weather ElementTotal
Precipitation0.39 in
Heating Degree Days24 (Base 65)
Averaged from 71 records on February 13, 2013
WEATHER CONDITIONS BREAKOUT
WIND DIRECTION BREAKOUT
WEATHER BY HOUR - FEBRUARY 13, 2013
[ °C ]   °F
Local TimeTemperatureDewpointHumidityBarometerVisibilityWind DirectionWind SpeedGust SpeedPrecipitationEventsConditions
12:35 AM41.0 °F32.0 °F70 %29.88 in10.0 miNorth (350°)8.1 mphOvercast
12:55 AM41.0 °F32.0 °F70 %29.89 in10.0 miNorth (10°)6.9 mphOvercast
1:15 AM39.2 °F32.0 °F75 %29.89 in10.0 miNorth (360°)4.6 mphOvercast
1:35 AM39.2 °F32.0 °F75 %29.88 in10.0 miNorth (350°)4.6 mphOvercast
1:55 AM39.2 °F32.0 °F75 %29.88 in10.0 miNorth (360°)5.8 mphOvercast
2:15 AM37.4 °F32.0 °F81 %29.88 in10.0 miNorth (360°)6.9 mphOvercast
2:35 AM37.4 °F32.0 °F81 %29.87 in10.0 miNNE (20°)3.5 mphOvercast
2:55 AM37.4 °F32.0 °F81 %29.87 in10.0 miNNW (340°)5.8 mphRainLight Rain
3:15 AM37.4 °F32.0 °F81 %29.86 in10.0 miNNW (340°)5.8 mphLight Drizzle
3:35 AM37.4 °F32.0 °F81 %29.86 in10.0 miNorth (350°)3.5 mphDrizzle
3:55 AM37.4 °F32.0 °F81 %29.86 in10.0 miNorth (350°)6.9 mphLight Drizzle
4:15 AM37.4 °F32.0 °F81 %29.87 in7.0 miNorth (360°)4.6 mphRainRain
4:35 AM37.4 °F32.0 °F81 %29.86 in7.0 miNorth (350°)6.9 mph0.02 inRainRain
4:55 AM35.6 °F32.0 °F87 %29.87 in5.0 miNNW (340°)6.9 mph0.04 inRainRain
5:15 AM35.6 °F33.8 °F93 %29.87 in5.0 miNorth (360°)9.2 mph0.02 inRainRain
5:35 AM35.6 °F32.0 °F87 %29.86 in5.0 miNorth (360°)8.1 mph0.05 inOvercast
5:55 AM35.6 °F33.8 °F93 %29.86 in5.0 miNorth (350°)4.6 mph0.07 inRainRain
6:15 AM35.6 °F33.8 °F93 %29.86 in5.0 miNorth (360°)6.9 mph0.02 inRainLight Rain
6:35 AM35.6 °F33.8 °F93 %29.88 in7.0 miNorth (360°)8.1 mph0.03 inRainLight Rain
6:55 AM33.8 °F32.0 °F93 %29.89 in3.0 miNorth (360°)6.9 mph0.04 inOvercast
7:15 AM33.8 °F32.0 °F93 %29.89 in3.0 miNorth (10°)5.8 mph0.01 inSnowLight Snow
7:35 AM33.8 °F32.0 °F93 %29.89 in2.0 miNorth (360°)3.5 mph0.02 inSnowLight Snow
7:55 AM33.8 °F32.0 °F93 %29.90 in1.5 miCalm0.02 inSnowLight Snow
8:15 AM33.8 °F32.0 °F93 %29.90 in1.5 miNNW (330°)4.6 mph0.01 inSnowLight Snow
8:35 AM33.8 °F33.8 °F100 %29.91 in1.8 miNNW (340°)3.5 mph0.02 inSnowLight Snow
8:55 AM33.8 °F33.8 °F100 %29.91 in2.0 miNW (320°)4.6 mph0.02 inRainLight Rain
9:15 AM33.8 °F33.8 °F100 %29.92 in2.5 miWNW (300°)5.8 mphRainLight Rain
9:35 AM35.6 °F35.6 °F100 %29.92 in3.0 miWNW (290°)6.9 mphOvercast
9:55 AM37.4 °F35.6 °F93 %29.92 in4.0 miWest (270°)8.1 mphOvercast
10:15 AM37.4 °F37.4 °F100 %29.92 in5.0 miWest (270°)8.1 mphOvercast
10:35 AM37.4 °F35.6 °F93 %29.92 in7.0 miWNW (290°)6.9 mphScattered Clouds
10:55 AM41.0 °F37.4 °F87 %29.92 in7.0 miWest (270°)6.9 mphMostly Cloudy
11:15 AM41.0 °F35.6 °F81 %29.92 in10.0 miWest (280°)4.6 mphOvercast
11:35 AM42.8 °F35.6 °F76 %29.91 in10.0 miWest (270°)6.9 mphMostly Cloudy
11:55 AM42.8 °F33.8 °F70 %29.90 in10.0 miWest (270°)4.6 mphMostly Cloudy
12:15 PM42.8 °F33.8 °F70 %29.89 in10.0 miWest (280°)6.9 mphMostly Cloudy
12:35 PM42.8 °F33.8 °F70 %29.88 in10.0 miWest (260°)6.9 mphMostly Cloudy
12:55 PM44.6 °F33.8 °F66 %29.88 in10.0 miWest (270°)5.8 mphOvercast
1:15 PM44.6 °F33.8 °F66 %29.88 in10.0 miWSW (250°)8.1 mphMostly Cloudy
1:35 PM46.4 °F33.8 °F62 %29.88 in10.0 miSW (230°)6.9 mphScattered Clouds
1:55 PM46.4 °F32.0 °F57 %29.87 in10.0 miWSW (250°)11.5 mphScattered Clouds
2:15 PM46.4 °F32.0 °F57 %29.87 in10.0 miWSW (250°)10.4 mphClear
2:35 PM46.4 °F32.0 °F57 %29.86 in10.0 miWSW (240°)8.1 mphClear
2:55 PM48.2 °F32.0 °F54 %29.86 in10.0 miSW (220°)8.1 mphClear
3:15 PM48.2 °F32.0 °F54 %29.86 in10.0 miWSW (240°)11.5 mphClear
3:35 PM48.2 °F30.2 °F50 %29.86 in10.0 miWSW (240°)11.5 mphClear
3:55 PM48.2 °F30.2 °F50 %29.86 in10.0 miWSW (240°)10.4 mphClear
4:15 PM48.2 °F32.0 °F54 %29.86 in10.0 miWSW (240°)11.5 mphClear
4:35 PM46.4 °F32.0 °F57 %29.86 in10.0 miSW (230°)9.2 mphClear
4:55 PM46.4 °F32.0 °F57 %29.86 in10.0 miSSW (210°)8.1 mphClear
5:15 PM44.6 °F33.8 °F66 %29.87 in10.0 miSSW (200°)9.2 mphClear
5:35 PM42.8 °F33.8 °F70 %29.87 in10.0 miSSW (200°)8.1 mphClear
5:55 PM42.8 °F33.8 °F70 %29.88 in10.0 miSSW (210°)8.1 mphClear
6:15 PM42.8 °F33.8 °F70 %29.88 in10.0 miSSW (200°)9.2 mphClear
6:35 PM41.0 °F33.8 °F76 %29.89 in10.0 miSSW (200°)8.1 mphClear
6:55 PM41.0 °F33.8 °F76 %29.90 in10.0 miSouth (190°)8.1 mphClear
7:15 PM41.0 °F33.8 °F76 %29.90 in10.0 miSSW (200°)6.9 mphClear
7:35 PM39.2 °F33.8 °F81 %29.90 in10.0 miSouth (190°)6.9 mphClear
7:55 PM39.2 °F33.8 °F81 %29.90 in10.0 miSouth (190°)6.9 mphClear
8:15 PM39.2 °F33.8 °F81 %29.90 in10.0 miSSW (200°)4.6 mphClear
8:35 PM37.4 °F33.8 °F87 %29.91 in10.0 miSSW (200°)3.5 mphClear
8:55 PM37.4 °F35.6 °F93 %29.91 in10.0 miSSW (200°)4.6 mphClear
9:15 PM37.4 °F33.8 °F87 %29.91 in10.0 miSSW (210°)3.5 mphClear
9:35 PM37.4 °F35.6 °F93 %29.91 in10.0 miSSW (210°)5.8 mphClear
9:55 PM37.4 °F35.6 °F93 %29.91 in10.0 miSSW (210°)8.1 mphClear
10:15 PM37.4 °F35.6 °F93 %29.92 in10.0 miSSW (210°)9.2 mphClear
10:35 PM37.4 °F35.6 °F93 %29.92 in10.0 miSW (220°)9.2 mphClear
10:55 PM37.4 °F35.6 °F93 %29.92 in10.0 miSW (220°)9.2 mphClear
11:15 PM37.4 °F35.6 °F93 %29.92 in10.0 miSW (220°)9.2 mphClear
11:35 PM37.4 °F35.6 °F93 %29.92 in10.0 miSW (220°)8.1 mphClear
11:55 PM37.4 °F35.6 °F93 %29.92 in10.0 miSSW (210°)8.1 mphClear
Hourly data recorded from KHSB, located miles away from Harrisburg, Illinois







STORIES FROM OUR PARTNERS